Regional Weather Roundup
Issued by NWS

Home | Current Version | Previous Version | Text Only | Print | Product List | Glossary Off
Versions: 1 2 3 4 5 6 7 8 9 10 11 12 13 14 15 16 17 18 19 20 21 22 23 24 25 26 27 28 29 30 31 32 33 34 35 36 37 38 39 40 41 42 43 44 45 46 47 48 49 50

000
ASUS43 KLOT 190208
RWRIL

ILLINOIS REGIONAL WEATHER ROUNDUP
NATIONAL WEATHER SERVICE CHICAGO/ROMEOVILLE IL
900 PM CDT WED APR 18 2018

NOTE: "FAIR" INDICATES FEW OR NO CLOUDS BELOW 12,000 FEET WITH NO
SIGNIFICANT WEATHER AND/OR OBSTRUCTIONS TO VISIBILITY.

* THESE STATIONS ARE NOT UNDER NWS QUALITY CONTROL. THEY ALSO MAY NOT
  REPORT WEATHER SUCH AS PRECIPITATION OR FOG.

ILZ001-002-007-009-015-016-024-190300-
NORTHWEST ILLINOIS

CITY           SKY/WX    TMP DP  RH WIND       PRES   REMARKS
MOLINE         FLURRIES  34  31  88 NW12      30.02R WCI  25
STERLING*      LGT SNOW  32  31  96 NW12      29.99R VSB 1   WCI  23
SAVANNA*       LGT SNOW  32  31  96 NW8       30.01R WCI  25
$$

ILZ003-004-008-010-011-017-018-190300-
NORTH CENTRAL ILLINOIS

CITY           SKY/WX    TMP DP  RH WIND       PRES   REMARKS
ROCKFORD       LGT SNOW  32  30  92 NW12      29.96R FOG     WCI  23
FREEPORT*      LGT SNOW  31  30  97 NW9       29.99R WCI  23
ROCHELLE*      LGT SNOW  32  32  99 NW14      29.95R WCI  22
DE KALB*       MIX PCPN  32  32  99 NW8       29.93R WCI  25
PERU*          LGT SNOW  35  33  94 NW13      29.97R WCI  26
$$

ILZ005-006-012>014-019>023-190300-
NORTHEAST ILLINOIS

CITY           SKY/WX    TMP DP  RH WIND       PRES   REMARKS
CHICAGO-OHARE  FRZ DRZL  32  32 100 NW8       29.89R FOG     WCI  25
CHICAGO-MIDWAY LGTSLEET  34  33  96 NW10      29.90R FOG     WCI  26
AURORA         CLOUDY    33  31  92 NW10      29.92R FOG     WCI  25
LANSING*       HVY RAIN  33  33 100 NW3       29.89R
JOLIET*        LGT RAIN  34  34  99 NW6       29.91R WCI  29
WAUKEGAN       LGT SNOW  33  32  96 N9G18     29.89R FOG     WCI  25
DUPAGE AIRPORT MIX PCPN  32  32 100 NW8       29.90R FOG     WCI  25
KANKAKEE*      LGT RAIN  34  33  95 NW8       29.91R WCI  27
WHEELING       LGT SNOW  34  32  92 NW7       29.91R FOG     WCI  28
MORRIS*        LGT RAIN  33  32  97 NW6       29.92R WCI  27
ROMEOVILLE*    DRIZZLE   32  32 100 NW9       29.91R WCI  24
NORTHERLY ISL    N/A     34  32  92 NW7         N/A  WCI  28
$$

LMZ740>746-190300-
SOUTHERN LAKE MICHIGAN

STATION/POSITION SKY/WX   TEMP    WIND        PRES    VSBY  WAVE
                          AIR SEA DIR/SP/G                  HT/PER
                          (F)     (DEG/KT/KT) (MB)    (MI)  (FT/S)
HARRISON CRIB              35     350/ 16/ 17   N/A
BURNHAM HARBOR             34     310/  6/ 14   N/A
CALUMET HARBOR             33     310/  6/ 12 1011.4R
BURNS HARBOR               35      10/ 13/ 15 1011.9R
MICHIGAN CITY              35     350/ 19/ 20   N/A
$$

ILZ025>027-034>036-040-047-049-050-058-095>099-190300-
WEST-CENTRAL ILLINOIS

CITY           SKY/WX    TMP DP  RH WIND       PRES   REMARKS
QUINCY         CLOUDY    37  27  67 NW17G29   30.07R WCI  27
GALESBURG*     MIX PCPN  36  34  94 NW13      30.03R WCI  27
MACOMB*        CLOUDY    33  30  90 NW12G18   30.06R WCI  24
JACKSONVILLE*  CLOUDY    37  28  71 W22G28    30.04R WCI  26
PITTSFIELD*    CLOUDY    38  28  66 NW17G26   30.07R WCI  29
$$

ILZ028>032-037-038-041>044-048-051>054-059>061-190300-
CENTRAL ILLINOIS

CITY           SKY/WX    TMP DP  RH WIND       PRES   REMARKS
PONTIAC        LGT RAIN  34  34  98 NW14      29.94R WCI  25
BLOOMINGTON    LGT RAIN  35  31  85 NW20G31   29.95R WCI  24
DECATUR        CLOUDY    38  28  67 W18G31    29.97R WCI  28
PEORIA         FLURRIES  34  31  88 NW7       30.00R WCI  28
LACON*         LGT RAIN  33  32  98 NW13      29.97R WCI  24
LINCOLN*       CLOUDY    38  31  77 W10G20    29.99R WCI  30
SPRINGFIELD    CLOUDY    39  29  67 W18G28    30.01R WCI  30
TAYLORVILLE    CLOUDY    38  29  72 W20G31    30.01R WCI  28
$$

ILZ033-039-045-046-055>057-062-063-190300-
EAST-CENTRAL ILLINOIS

CITY           SKY/WX    TMP DP  RH WIND       PRES   REMARKS
CHAMPAIGN      CLOUDY    38  30  73 W26G33    29.92R WCI  26
DANVILLE*      CLOUDY    38  32  79 W15G26    29.87R WCI  29
RANTOUL*       CLOUDY    39  32  77 W22G28    29.92R WCI  28
MATTOON        CLOUDY    39  29  67 NW25G33   29.95R WCI  28
PARIS*         MOCLDY    39  32  77 W22G30    29.92R WCI  28
$$

ILZ079-100>102-190300-
SOUTHWEST ILLINOIS

CITY           SKY/WX    TMP DP  RH WIND       PRES   REMARKS
ALTON          CLOUDY    41  32  70 NW20G29   30.04R
BELLEVILLE     CLOUDY    45  31  58 W23G33    30.02R
CAHOKIA*       CLOUDY    44  30  57 NW17G37   30.05R
SPARTA*        CLOUDY    47  36  65 W21G37    30.03R
$$

ILZ064>066-069>071-074>076-080>082-084>086-088>090-092>094-190300-
SOUTH-CENTRAL ILLINOIS

CITY           SKY/WX    TMP DP  RH WIND       PRES   REMARKS
CARBONDALE     FAIR      50  34  54 W15G23    29.98R
CAIRO*         FAIR      56  38  50 NW20G30   29.97R
EFFINGHAM*     CLOUDY    42  33  70 W18G26    29.99R
MARION         FAIR      50  33  53 NW14G21   29.99R
MT. VERNON     MOCLDY    47  34  60 W9G22     29.98R
CENTRALIA*     CLOUDY    46  36  68 NW20G31   29.99R
SALEM*         CLOUDY    46  35  63 NW22G37   29.98R
METROPOLIS*    FAIR      56  38  50 NW16G26   29.95R
$$

ILZ067-068-072-073-078-083-087-091-190300-
SOUTHEAST ILLINOIS

CITY           SKY/WX    TMP DP  RH WIND       PRES   REMARKS
LAWRENCEVILLE  FAIR      47  33  58 NW29G36   29.93R
FLORA*         CLOUDY    47  35  62 NW15G24   29.96R
FAIRFIELD*     CLOUDY    48  36  62 W10G18    29.96R
HARRISBURG*    FAIR      51  37  59 NW25G33   29.97R
ROBINSON*      CLOUDY    44  32  64 NW23G30   29.95R
CARMI*         MOCLDY    50  38  63 NW24G32   29.94R
$$

ABBREVIATIONS USED IN REMARKS
   TC - TEMPERATURE IN CELSIUS
  WCI - WIND CHILL INDEX
   HX - HEAT INDEX
  VSB - VISIBILITY
$$





USA.gov is the U.S. government's official web portal to all federal, state and local government web resources and services.